| time (UTC) | temp C | wind direction | speed KPH | gust KPH | rain 1hr cm | rain 24hr cm | rain mn cm | humidity % | barometer mb |
| 20260906221534 | 29 | 310 | 14.5 | 35.4 | 0.00 | 0.00 | 0.00 | 34 | 1012.9 |
| 20260906221020 | 29 | 11 | 24.1 | 35.4 | 0.00 | 0.00 | 0.00 | 34 | 1012.7 |
| 20260906220520 | 30 | 4 | 12.9 | 27.4 | 0.00 | 0.00 | 0.00 | 33 | 1012.8 |
| 20260906220037 | 30 | 346 | 9.7 | 27.4 | 0.00 | 0.00 | 0.00 | 31 | 1013.1 |
| 20260906215516 | 30 | 333 | 9.7 | 27.4 | 0.00 | 0.00 | 0.00 | 32 | 1013.1 |
| 20260906215018 | 30 | 23 | 14.5 | 27.4 | 0.00 | 0.00 | 0.00 | 32 | 1013.1 |
| 20260906214539 | 30 | 24 | 16.1 | 30.6 | 0.00 | 0.00 | 0.00 | 31 | 1013.0 |
| 20260906214025 | 30 | 309 | 12.9 | 37.0 | 0.00 | 0.00 | 0.00 | 31 | 1012.9 |
| 20260906213520 | 30 | 280 | 9.7 | 37.0 | 0.00 | 0.00 | 0.00 | 31 | 1012.9 |
| 20260906213034 | 30 | 271 | 16.1 | 37.0 | 0.00 | 0.00 | 0.00 | 30 | 1013.2 |
| 20260906212517 | 30 | 297 | 16.1 | 35.4 | 0.00 | 0.00 | 0.00 | 31 | 1013.2 |
| 20260906212020 | 30 | 359 | 19.3 | 30.6 | 0.00 | 0.00 | 0.00 | 29 | 1013.3 |
| 20260906211542 | 30 | 341 | 17.7 | 38.6 | 0.00 | 0.00 | 0.00 | 29 | 1013.4 |
| 20260906211024 | 30 | 8 | 19.3 | 38.6 | 0.00 | 0.00 | 0.00 | 30 | 1013.6 |
| 20260906210520 | 30 | 12 | 22.5 | 38.6 | 0.00 | 0.00 | 0.00 | 29 | 1013.6 |
| 20260906210038 | 30 | 5 | 8.0 | 32.2 | 0.00 | 0.00 | 0.00 | 30 | 1013.7 |
| 20260906205520 | 30 | 10 | 9.7 | 37.0 | 0.00 | 0.00 | 0.00 | 28 | 1013.9 |
| 20260906205018 | 30 | 343 | 19.3 | 37.0 | 0.00 | 0.00 | 0.00 | 29 | 1014.0 |
| 20260906204539 | 30 | 358 | 11.3 | 33.8 | 0.00 | 0.00 | 0.00 | 30 | 1013.9 |
| 20260906204019 | 30 | 352 | 17.7 | 37.0 | 0.00 | 0.00 | 0.00 | 31 | 1014.0 |
| 20260906203520 | 29 | 345 | 24.1 | 37.0 | 0.00 | 0.00 | 0.00 | 30 | 1014.1 |
| 20260906203036 | 30 | 352 | 17.7 | 30.6 | 0.00 | 0.00 | 0.00 | 30 | 1014.2 |
| 20260906202520 | 30 | 349 | 16.1 | 33.8 | 0.00 | 0.00 | 0.00 | 31 | 1014.2 |
| 20260906202018 | 29 | 349 | 14.5 | 33.8 | 0.00 | 0.00 | 0.00 | 30 | 1014.2 |
| 20260906201535 | 29 | 349 | 20.9 | 33.8 | 0.00 | 0.00 | 0.00 | 30 | 1014.2 |
| 20260906201017 | 29 | 359 | 25.7 | 33.8 | 0.00 | 0.00 | 0.00 | 31 | 1014.2 |
| 20260906200520 | 29 | 338 | 16.1 | 27.4 | 0.00 | 0.00 | 0.00 | 32 | 1014.3 |
| 20260906200043 | 28 | 356 | 19.3 | 27.4 | 0.00 | 0.00 | 0.00 | 31 | 1014.4 |
| 20260906195520 | 29 | 27 | 6.4 | 17.7 | 0.00 | 0.00 | 0.00 | 30 | 1014.5 |
| 20260906195017 | 28 | 347 | 8.0 | 17.7 | 0.00 | 0.00 | 0.00 | 30 | 1014.6 |
| 20260906194536 | 28 | 53 | 4.8 | 17.7 | 0.00 | 0.00 | 0.00 | 32 | 1014.7 |
| 20260906194019 | 28 | 105 | 6.4 | 25.7 | 0.00 | 0.00 | 0.00 | 32 | 1014.7 |
| 20260906193518 | 28 | 37 | 14.5 | 25.7 | 0.00 | 0.00 | 0.00 | 33 | 1014.7 |
| 20260906193058 | 27 | 358 | 14.5 | 25.7 | 0.00 | 0.00 | 0.00 | 33 | 1014.7 |
| 20260906192520 | 28 | 354 | 12.9 | 22.5 | 0.00 | 0.00 | 0.00 | 33 | 1015.0 |
| 20260906192020 | 27 | 4 | 9.7 | 22.5 | 0.00 | 0.00 | 0.00 | 33 | 1015.1 |
| 20260906191539 | 27 | 32 | 14.5 | 22.5 | 0.00 | 0.00 | 0.00 | 33 | 1015.0 |
| 20260906191017 | 28 | 37 | 4.8 | 12.9 | 0.00 | 0.00 | 0.00 | 33 | 1015.2 |
| 20260906190520 | 27 | 355 | 3.2 | 17.7 | 0.00 | 0.00 | 0.00 | 34 | 1015.3 |
| 20260906190036 | 27 | 67 | 9.7 | 17.7 | 0.00 | 0.00 | 0.00 | 34 | 1015.4 |
| 20260906185519 | 27 | 352 | 4.8 | 14.5 | 0.00 | 0.00 | 0.00 | 33 | 1015.5 |
| 20260906185018 | 27 | 0 | 4.8 | 14.5 | 0.00 | 0.00 | 0.00 | 34 | 1015.6 |
| 20260906184543 | 27 | 65 | 4.8 | 14.5 | 0.00 | 0.00 | 0.00 | 34 | 1015.7 |
| 20260906184017 | 27 | 76 | 1.6 | 11.3 | 0.00 | 0.00 | 0.00 | 35 | 1015.9 |
| 20260906183518 | 26 | 357 | 4.8 | 11.3 | 0.00 | 0.00 | 0.00 | 37 | 1015.9 |
| 20260906183038 | 27 | 41 | 3.2 | 11.3 | 0.00 | 0.00 | 0.00 | 36 | 1015.9 |
| 20260906182521 | 26 | 0 | 3.2 | 8.0 | 0.00 | 0.00 | 0.00 | 37 | 1016.1 |
| 20260906182020 | 26 | 105 | 3.2 | 8.0 | 0.00 | 0.00 | 0.00 | 37 | 1016.2 |
| 20260906181550 | 26 | 257 | 3.2 | 9.7 | 0.00 | 0.00 | 0.00 | 37 | 1016.2 |
| 20260906181017 | 26 | 221 | 3.2 | 9.7 | 0.00 | 0.00 | 0.00 | 38 | 1016.3 |
| 20260906180518 | 25 | 166 | 1.6 | 16.1 | 0.00 | 0.00 | 0.00 | 38 | 1016.4 |
| 20260906180037 | 25 | 78 | 8.0 | 16.1 | 0.00 | 0.00 | 0.00 | 40 | 1016.5 |
| 20260906175520 | 25 | 73 | 8.0 | 16.1 | 0.00 | 0.00 | 0.00 | 39 | 1016.6 |
| 20260906175019 | 25 | 94 | 6.4 | 14.5 | 0.00 | 0.00 | 0.00 | 39 | 1016.8 |
| 20260906174541 | 25 | 104 | 4.8 | 12.9 | 0.00 | 0.00 | 0.00 | 40 | 1016.8 |
| 20260906174019 | 25 | 41 | 6.4 | 12.9 | 0.00 | 0.00 | 0.00 | 43 | 1016.9 |
| 20260906173524 | 25 | 80 | 3.2 | 8.0 | 0.00 | 0.00 | 0.00 | 42 | 1017.2 |
| 20260906173034 | 24 | 121 | 3.2 | 12.9 | 0.00 | 0.00 | 0.00 | 44 | 1017.2 |
| 20260906172517 | 23 | 149 | 1.6 | 14.5 | 0.00 | 0.00 | 0.00 | 45 | 1017.3 |
| 20260906172024 | 23 | 73 | 8.0 | 14.5 | 0.00 | 0.00 | 0.00 | 44 | 1017.5 |
| 20260906171535 | 23 | 13 | 9.7 | 14.5 | 0.00 | 0.00 | 0.00 | 45 | 1017.4 |
| 20260906171020 | 23 | 26 | 3.2 | 12.9 | 0.00 | 0.00 | 0.00 | 44 | 1017.5 |
| 20260906170521 | 23 | 185 | 3.2 | 14.5 | 0.00 | 0.00 | 0.00 | 45 | 1017.7 |
| 20260906170036 | 22 | 83 | 9.7 | 14.5 | 0.00 | 0.00 | 0.00 | 46 | 1017.6 |
| 20260906165601 | 22 | 12 | 3.2 | 17.7 | 0.00 | 0.00 | 0.00 | 46 | 1017.7 |
| 20260906165020 | 22 | 40 | 8.0 | 19.3 | 0.00 | 0.00 | 0.00 | 47 | 1017.7 |
| 20260906164540 | 22 | 54 | 11.3 | 19.3 | 0.00 | 0.00 | 0.00 | 46 | 1017.7 |
| 20260906164017 | 22 | 335 | 11.3 | 19.3 | 0.00 | 0.00 | 0.00 | 46 | 1017.8 |
| 20260906163517 | 22 | 23 | 4.8 | 17.7 | 0.00 | 0.00 | 0.00 | 48 | 1017.8 |
| 20260906163036 | 21 | 0 | 4.8 | 17.7 | 0.00 | 0.00 | 0.00 | 48 | 1017.9 |
| 20260906162523 | 22 | 8 | 8.0 | 17.7 | 0.00 | 0.00 | 0.00 | 48 | 1018.0 |
| 20260906162018 | 21 | 343 | 6.4 | 19.3 | 0.00 | 0.00 | 0.00 | 48 | 1017.9 |
| 20260906161536 | 21 | 46 | 9.7 | 19.3 | 0.00 | 0.00 | 0.00 | 49 | 1018.0 |
| 20260906161017 | 21 | 53 | 12.9 | 19.3 | 0.00 | 0.00 | 0.00 | 49 | 1017.9 |
| 20260906160517 | 21 | 4 | 11.3 | 19.3 | 0.00 | 0.00 | 0.00 | 48 | 1017.9 |
| 20260906160038 | 21 | 340 | 4.8 | 17.7 | 0.00 | 0.00 | 0.00 | 48 | 1018.0 |
| 20260906155518 | 21 | 14 | 8.0 | 17.7 | 0.00 | 0.00 | 0.00 | 49 | 1018.0 |
| 20260906155017 | 21 | 4 | 12.9 | 22.5 | 0.00 | 0.00 | 0.00 | 50 | 1017.9 |
| 20260906154541 | 21 | 352 | 8.0 | 22.5 | 0.00 | 0.00 | 0.00 | 50 | 1018.0 |
| 20260906154023 | 20 | 34 | 14.5 | 22.5 | 0.00 | 0.00 | 0.00 | 51 | 1017.9 |
| 20260906153517 | 20 | 343 | 9.7 | 19.3 | 0.00 | 0.00 | 0.00 | 51 | 1017.9 |
| 20260906153035 | 20 | 10 | 11.3 | 19.3 | 0.00 | 0.00 | 0.00 | 51 | 1017.8 |
| 20260906152526 | 20 | 5 | 11.3 | 19.3 | 0.00 | 0.00 | 0.00 | 51 | 1017.9 |
| 20260906152022 | 20 | 34 | 12.9 | 19.3 | 0.00 | 0.00 | 0.00 | 51 | 1017.8 |
| 20260906151540 | 20 | 22 | 9.7 | 14.5 | 0.00 | 0.00 | 0.00 | 51 | 1017.8 |
| 20260906151021 | 20 | 341 | 9.7 | 16.1 | 0.00 | 0.00 | 0.00 | 51 | 1017.9 |
| 20260906150518 | 20 | 339 | 11.3 | 16.1 | 0.00 | 0.00 | 0.00 | 51 | 1017.8 |
| 20260906150035 | 19 | 6 | 9.7 | 16.1 | 0.00 | 0.00 | 0.00 | 52 | 1017.8 |
| 20260906145519 | 19 | 22 | 11.3 | 16.1 | 0.00 | 0.00 | 0.00 | 52 | 1017.8 |
| 20260906145022 | 18 | 358 | 8.0 | 17.7 | 0.00 | 0.00 | 0.00 | 54 | 1017.9 |
| 20260906144547 | 18 | 345 | 11.3 | 19.3 | 0.00 | 0.00 | 0.00 | 55 | 1017.9 |
| 20260906144018 | 18 | 359 | 12.9 | 19.3 | 0.00 | 0.00 | 0.00 | 54 | 1017.9 |
| 20260906143520 | 18 | 359 | 11.3 | 16.1 | 0.00 | 0.00 | 0.00 | 53 | 1017.9 |
| 20260906143038 | 18 | 9 | 8.0 | 16.1 | 0.00 | 0.00 | 0.00 | 53 | 1018.0 |
| 20260906142517 | 18 | 311 | 6.4 | 16.1 | 0.00 | 0.00 | 0.00 | 53 | 1017.9 |
| 20260906142021 | 18 | 341 | 4.8 | 12.9 | 0.00 | 0.00 | 0.00 | 54 | 1018.0 |
| 20260906141538 | 18 | 30 | 4.8 | 11.3 | 0.00 | 0.00 | 0.00 | 54 | 1017.9 |
| 20260906141019 | 18 | 128 | 4.8 | 11.3 | 0.00 | 0.00 | 0.00 | 54 | 1017.8 |
| 20260906140519 | 18 | 169 | 4.8 | 9.7 | 0.00 | 0.00 | 0.00 | 54 | 1017.8 |
| 20260906140036 | 17 | 357 | 3.2 | 9.7 | 0.00 | 0.00 | 0.00 | 54 | 1017.8 |
| 20260906135520 | 17 | 342 | 3.2 | 9.7 | 0.00 | 0.00 | 0.00 | 56 | 1017.8 |
| 20260906135018 | 17 | 290 | 1.6 | 12.9 | 0.00 | 0.00 | 0.00 | 57 | 1017.8 |
| 20260906134535 | 17 | 129 | 4.8 | 12.9 | 0.00 | 0.00 | 0.00 | 55 | 1017.7 |
| 20260906134020 | 16 | 303 | 1.6 | 12.9 | 0.00 | 0.00 | 0.00 | 52 | 1017.8 |
| 20260906133518 | 16 | 321 | 6.4 | 16.1 | 0.00 | 0.00 | 0.00 | 53 | 1017.7 |
| 20260906133036 | 16 | 5 | 9.7 | 16.1 | 0.00 | 0.00 | 0.00 | 54 | 1017.8 |
| 20260906132517 | 16 | 344 | 1.6 | 4.8 | 0.00 | 0.00 | 0.00 | 53 | 1017.7 |
| 20260906132018 | 15 | 188 | 0.0 | 4.8 | 0.00 | 0.00 | 0.00 | 54 | 1017.5 |
| 20260906131538 | 15 | 326 | 0.0 | 4.8 | 0.00 | 0.00 | 0.00 | 55 | 1017.6 |
| 20260906131022 | 15 | 349 | 1.6 | 4.8 | 0.00 | 0.00 | 0.00 | 54 | 1017.5 |
| 20260906130522 | 16 | 349 | 1.6 | 4.8 | 0.00 | 0.00 | 0.00 | 54 | 1017.5 |
| 20260906130033 | 16 | 282 | 3.2 | 4.8 | 0.00 | 0.00 | 0.00 | 54 | 1017.6 |
| 20260906125520 | 15 | 330 | 1.6 | 3.2 | 0.00 | 0.00 | 0.00 | 55 | 1017.6 |
| 20260906125020 | 15 | 328 | 0.0 | 3.2 | 0.00 | 0.00 | 0.00 | 56 | 1017.5 |
| 20260906124542 | 15 | 287 | 1.6 | 4.8 | 0.00 | 0.00 | 0.00 | 56 | 1017.6 |
| 20260906124018 | 15 | 290 | 3.2 | 4.8 | 0.00 | 0.00 | 0.00 | 57 | 1017.5 |
| 20260906123517 | 15 | 286 | 3.2 | 4.8 | 0.00 | 0.00 | 0.00 | 57 | 1017.6 |
| 20260906123039 | 15 | 294 | 3.2 | 4.8 | 0.00 | 0.00 | 0.00 | 56 | 1017.6 |
| 20260906122516 | 15 | 275 | 1.6 | 3.2 | 0.00 | 0.00 | 0.00 | 57 | 1017.7 |
| 20260906122020 | 14 | 276 | 1.6 | 3.2 | 0.00 | 0.00 | 0.00 | 59 | 1017.8 |
| 20260906121536 | 14 | 275 | 1.6 | 1.6 | 0.00 | 0.00 | 0.00 | 59 | 1017.7 |
| 20260906121021 | 14 | 0 | 0.0 | 3.2 | 0.00 | 0.00 | 0.00 | 60 | 1017.6 |
| 20260906120518 | 14 | 231 | 1.6 | 3.2 | 0.00 | 0.00 | 0.00 | 59 | 1017.7 |
| 20260906120042 | 14 | 0 | 0.0 | 0.0 | 0.00 | 0.00 | 0.00 | 59 | 1017.7 |
| 20260906115518 | 14 | 0 | 0.0 | 1.6 | 0.00 | 0.00 | 0.00 | 58 | 1017.7 |
| 20260906115017 | 14 | 0 | 0.0 | 4.8 | 0.00 | 0.00 | 0.00 | 57 | 1017.7 |
| 20260906114546 | 15 | 243 | 1.6 | 4.8 | 0.00 | 0.00 | 0.00 | 57 | 1017.6 |
| 20260906114018 | 15 | 256 | 3.2 | 3.2 | 0.00 | 0.00 | 0.00 | 57 | 1017.6 |
| 20260906113518 | 14 | 259 | 1.6 | 1.6 | 0.00 | 0.00 | 0.00 | 57 | 1017.5 |
| 20260906113035 | 14 | 269 | 0.0 | 1.6 | 0.00 | 0.00 | 0.00 | 58 | 1017.5 |
| 20260906112516 | 14 | 0 | 0.0 | 1.6 | 0.00 | 0.00 | 0.00 | 58 | 1017.4 |
| 20260906112020 | 14 | 0 | 0.0 | 1.6 | 0.00 | 0.00 | 0.00 | 58 | 1017.5 |
| 20260906111540 | 14 | 0 | 0.0 | 0.0 | 0.00 | 0.00 | 0.00 | 58 | 1017.4 |
| 20260906111020 | 14 | 184 | 0.0 | 0.0 | 0.00 | 0.00 | 0.00 | 57 | 1017.5 |
| 20260906110520 | 14 | 0 | 0.0 | 0.0 | 0.00 | 0.00 | 0.00 | 57 | 1017.5 |
| 20260906110038 | 15 | 0 | 0.0 | 1.6 | 0.00 | 0.00 | 0.00 | 55 | 1017.3 |
| 20260906105520 | 15 | 0 | 0.0 | 4.8 | 0.00 | 0.00 | 0.00 | 56 | 1017.3 |
| 20260906105020 | 15 | 183 | 1.6 | 4.8 | 0.00 | 0.00 | 0.00 | 55 | 1017.3 |
| 20260906104546 | 15 | 211 | 3.2 | 4.8 | 0.00 | 0.00 | 0.00 | 54 | 1017.3 |
| 20260906104020 | 16 | 219 | 0.0 | 4.8 | 0.00 | 0.00 | 0.00 | 51 | 1017.2 |
| 20260906103518 | 16 | 0 | 0.0 | 0.0 | 0.00 | 0.00 | 0.00 | 51 | 1017.3 |
| 20260906103037 | 16 | 0 | 0.0 | 0.0 | 0.00 | 0.00 | 0.00 | 53 | 1017.3 |
| 20260906102516 | 16 | 0 | 0.0 | 0.0 | 0.00 | 0.00 | 0.00 | 53 | 1017.3 |
| 20260906102017 | 15 | 0 | 0.0 | 0.0 | 0.00 | 0.00 | 0.00 | 55 | 1017.3 |
| 20260906101535 | 15 | 0 | 0.0 | 0.0 | 0.00 | 0.00 | 0.00 | 56 | 1017.3 |
| 20260906101020 | 14 | 0 | 0.0 | 0.0 | 0.00 | 0.00 | 0.00 | 58 | 1017.4 |
| 20260906100520 | 14 | 0 | 0.0 | 0.0 | 0.00 | 0.00 | 0.00 | 56 | 1017.3 |
| 20260906100034 | 14 | 0 | 0.0 | 0.0 | 0.00 | 0.00 | 0.00 | 58 | 1017.4 |
| 20260906095524 | 14 | 0 | 0.0 | 0.0 | 0.00 | 0.00 | 0.00 | 59 | 1017.5 |
| 20260906095019 | 15 | 0 | 0.0 | 0.0 | 0.00 | 0.00 | 0.00 | 57 | 1017.5 |
| 20260906094555 | 15 | 0 | 0.0 | 0.0 | 0.00 | 0.00 | 0.00 | 56 | 1017.4 |
| 20260906094021 | 15 | 0 | 0.0 | 0.0 | 0.00 | 0.00 | 0.00 | 56 | 1017.4 |
| 20260906093516 | 15 | 0 | 0.0 | 0.0 | 0.00 | 0.00 | 0.00 | 57 | 1017.4 |
| 20260906093048 | 15 | 0 | 0.0 | 0.0 | 0.00 | 0.00 | 0.00 | 55 | 1017.5 |
| 20260906092520 | 16 | 0 | 0.0 | 0.0 | 0.00 | 0.00 | 0.00 | 55 | 1017.5 |
| 20260906092020 | 15 | 0 | 0.0 | 0.0 | 0.00 | 0.00 | 0.00 | 55 | 1017.6 |
| 20260906091534 | 15 | 0 | 0.0 | 0.0 | 0.00 | 0.00 | 0.00 | 55 | 1017.5 |
| 20260906091017 | 16 | 0 | 0.0 | 0.0 | 0.00 | 0.00 | 0.00 | 54 | 1017.5 |
| 20260906090518 | 16 | 0 | 0.0 | 0.0 | 0.00 | 0.00 | 0.00 | 53 | 1017.6 |
| 20260906090035 | 16 | 0 | 0.0 | 0.0 | 0.00 | 0.00 | 0.00 | 52 | 1017.5 |
| 20260906085520 | 16 | 0 | 0.0 | 0.0 | 0.00 | 0.00 | 0.00 | 52 | 1017.6 |
| 20260906085020 | 16 | 0 | 0.0 | 0.0 | 0.00 | 0.00 | 0.00 | 50 | 1017.6 |
| 20260906084534 | 17 | 0 | 0.0 | 0.0 | 0.00 | 0.00 | 0.00 | 50 | 1017.8 |
| 20260906084021 | 17 | 0 | 0.0 | 4.8 | 0.00 | 0.00 | 0.00 | 50 | 1017.8 |
| 20260906083518 | 17 | 0 | 0.0 | 4.8 | 0.00 | 0.00 | 0.00 | 50 | 1017.8 |
| 20260906083045 | 17 | 282 | 3.2 | 4.8 | 0.00 | 0.00 | 0.00 | 50 | 1017.9 |
| 20260906082517 | 16 | 283 | 3.2 | 4.8 | 0.00 | 0.00 | 0.00 | 51 | 1017.9 |
| 20260906082024 | 16 | 287 | 1.6 | 4.8 | 0.00 | 0.00 | 0.00 | 51 | 1017.9 |
| 20260906081538 | 16 | 283 | 0.0 | 3.2 | 0.00 | 0.00 | 0.00 | 51 | 1018.0 |
| 20260906081020 | 17 | 0 | 0.0 | 4.8 | 0.00 | 0.00 | 0.00 | 50 | 1018.0 |
| 20260906080520 | 17 | 0 | 1.6 | 4.8 | 0.00 | 0.00 | 0.00 | 50 | 1018.1 |
| 20260906080041 | 17 | 280 | 0.0 | 8.0 | 0.00 | 0.00 | 0.00 | 50 | 1018.2 |
| 20260906075517 | 17 | 278 | 1.6 | 8.0 | 0.00 | 0.00 | 0.00 | 49 | 1018.2 |
| 20260906075018 | 17 | 290 | 3.2 | 8.0 | 0.00 | 0.00 | 0.00 | 49 | 1018.2 |
| 20260906074535 | 17 | 338 | 1.6 | 6.4 | 0.00 | 0.00 | 0.00 | 48 | 1018.3 |
| 20260906074016 | 17 | 302 | 3.2 | 8.0 | 0.00 | 0.00 | 0.00 | 48 | 1018.3 |
| 20260906073518 | 17 | 330 | 3.2 | 8.0 | 0.00 | 0.00 | 0.00 | 48 | 1018.3 |
| 20260906073034 | 17 | 277 | 3.2 | 8.0 | 0.00 | 0.00 | 0.00 | 48 | 1018.4 |
| 20260906072518 | 17 | 295 | 3.2 | 8.0 | 0.00 | 0.00 | 0.00 | 48 | 1018.3 |
| 20260906072018 | 17 | 326 | 3.2 | 8.0 | 0.00 | 0.00 | 0.00 | 48 | 1018.4 |
| 20260906071537 | 17 | 319 | 4.8 | 8.0 | 0.00 | 0.00 | 0.00 | 48 | 1018.5 |
| 20260906071018 | 17 | 300 | 3.2 | 8.0 | 0.00 | 0.00 | 0.00 | 49 | 1018.4 |
| 20260906070520 | 17 | 300 | 1.6 | 6.4 | 0.00 | 0.00 | 0.00 | 49 | 1018.4 |
| 20260906070037 | 17 | 253 | 0.0 | 6.4 | 0.00 | 0.00 | 0.00 | 50 | 1018.4 |
| 20260906065517 | 17 | 283 | 1.6 | 6.4 | 0.00 | 0.00 | 0.00 | 49 | 1018.4 |
| 20260906065016 | 17 | 0 | 1.6 | 6.4 | 0.00 | 0.00 | 0.00 | 50 | 1018.4 |
| 20260906064534 | 16 | 293 | 1.6 | 6.4 | 0.00 | 0.00 | 0.00 | 50 | 1018.5 |
| 20260906064015 | 17 | 350 | 1.6 | 6.4 | 0.00 | 0.00 | 0.00 | 50 | 1018.5 |
| 20260906063519 | 17 | 301 | 3.2 | 6.4 | 0.00 | 0.00 | 0.00 | 49 | 1018.6 |
| 20260906063036 | 17 | 134 | 1.6 | 8.0 | 0.00 | 0.00 | 0.00 | 49 | 1018.6 |
| 20260906062518 | 17 | 308 | 1.6 | 8.0 | 0.00 | 0.00 | 0.00 | 47 | 1018.6 |
| 20260906062020 | 18 | 269 | 0.0 | 6.4 | 0.00 | 0.00 | 0.00 | 47 | 1018.7 |
| 20260906061538 | 18 | 241 | 1.6 | 8.0 | 0.00 | 0.00 | 0.00 | 46 | 1018.6 |
| 20260906061017 | 18 | 225 | 1.6 | 9.7 | 0.00 | 0.00 | 0.00 | 45 | 1018.7 |
| 20260906060523 | 18 | 285 | 3.2 | 9.7 | 0.00 | 0.00 | 0.00 | 45 | 1018.7 |
| 20260906060037 | 18 | 307 | 4.8 | 9.7 | 0.00 | 0.00 | 0.00 | 45 | 1018.7 |
| 20260906055520 | 18 | 279 | 4.8 | 8.0 | 0.00 | 0.00 | 0.00 | 46 | 1018.7 |
| 20260906055017 | 18 | 290 | 3.2 | 6.4 | 0.00 | 0.00 | 0.00 | 46 | 1018.8 |
| 20260906054539 | 18 | 136 | 1.6 | 4.8 | 0.00 | 0.00 | 0.00 | 45 | 1018.9 |
| 20260906054023 | 18 | 141 | 1.6 | 4.8 | 0.00 | 0.00 | 0.00 | 45 | 1018.8 |
| 20260906053519 | 18 | 8 | 1.6 | 6.4 | 0.00 | 0.00 | 0.00 | 44 | 1018.9 |
| 20260906053036 | 19 | 57 | 1.6 | 8.0 | 0.00 | 0.00 | 0.00 | 43 | 1018.8 |
| 20260906052520 | 19 | 285 | 3.2 | 11.3 | 0.00 | 0.00 | 0.00 | 43 | 1018.8 |
| 20260906052019 | 19 | 77 | 3.2 | 11.3 | 0.00 | 0.00 | 0.00 | 43 | 1018.8 |
| 20260906051548 | 19 | 297 | 4.8 | 9.7 | 0.00 | 0.00 | 0.00 | 43 | 1018.8 |
| 20260906051020 | 20 | 108 | 3.2 | 14.5 | 0.00 | 0.00 | 0.00 | 42 | 1018.9 |
| 20260906050522 | 19 | 1 | 6.4 | 14.5 | 0.00 | 0.00 | 0.00 | 42 | 1019.0 |
| 20260906050036 | 19 | 281 | 6.4 | 12.9 | 0.00 | 0.00 | 0.00 | 42 | 1019.0 |
| 20260906045521 | 19 | 181 | 3.2 | 9.7 | 0.00 | 0.00 | 0.00 | 42 | 1019.1 |
| 20260906045018 | 19 | 138 | 3.2 | 8.0 | 0.00 | 0.00 | 0.00 | 43 | 1019.1 |
| 20260906044535 | 19 | 340 | 3.2 | 8.0 | 0.00 | 0.00 | 0.00 | 43 | 1019.1 |
| 20260906044015 | 19 | 344 | 1.6 | 6.4 | 0.00 | 0.00 | 0.00 | 43 | 1019.1 |
| 20260906043518 | 20 | 241 | 0.0 | 6.4 | 0.00 | 0.00 | 0.00 | 43 | 1019.1 |
| 20260906043033 | 20 | 271 | 1.6 | 8.0 | 0.00 | 0.00 | 0.00 | 42 | 1019.0 |
| 20260906042520 | 20 | 115 | 1.6 | 8.0 | 0.00 | 0.00 | 0.00 | 41 | 1019.1 |
| 20260906042020 | 20 | 293 | 1.6 | 8.0 | 0.00 | 0.00 | 0.00 | 42 | 1019.1 |
| 20260906041537 | 20 | 283 | 3.2 | 8.0 | 0.00 | 0.00 | 0.00 | 42 | 1019.0 |
| 20260906041018 | 20 | 18 | 1.6 | 4.8 | 0.00 | 0.00 | 0.00 | 41 | 1018.8 |
| 20260906040518 | 20 | 32 | 1.6 | 8.0 | 0.00 | 0.00 | 0.00 | 41 | 1018.8 |
| 20260906040035 | 20 | 295 | 1.6 | 8.0 | 0.00 | 0.00 | 0.00 | 41 | 1018.8 |
| 20260906035519 | 20 | 285 | 1.6 | 8.0 | 0.00 | 0.00 | 0.00 | 41 | 1018.8 |
| 20260906035018 | 20 | 326 | 1.6 | 8.0 | 0.00 | 0.00 | 0.00 | 41 | 1018.8 |
| 20260906034535 | 20 | 302 | 1.6 | 8.0 | 0.00 | 0.00 | 0.00 | 41 | 1018.8 |
| 20260906034020 | 20 | 317 | 1.6 | 8.0 | 0.00 | 0.00 | 0.00 | 41 | 1018.8 |
| 20260906033520 | 20 | 294 | 3.2 | 8.0 | 0.00 | 0.00 | 0.00 | 41 | 1018.7 |
| 20260906033045 | 20 | 336 | 3.2 | 4.8 | 0.00 | 0.00 | 0.00 | 41 | 1018.7 |
| 20260906032518 | 20 | 323 | 1.6 | 4.8 | 0.00 | 0.00 | 0.00 | 41 | 1018.8 |
| 20260906032018 | 20 | 344 | 0.0 | 4.8 | 0.00 | 0.00 | 0.00 | 41 | 1018.6 |
| 20260906031539 | 20 | 345 | 1.6 | 8.0 | 0.00 | 0.00 | 0.00 | 41 | 1018.6 |
| 20260906031018 | 20 | 343 | 1.6 | 8.0 | 0.00 | 0.00 | 0.00 | 40 | 1018.6 |
| 20260906030518 | 20 | 300 | 3.2 | 9.7 | 0.00 | 0.00 | 0.00 | 40 | 1018.6 |
| 20260906030035 | 20 | 103 | 4.8 | 11.3 | 0.00 | 0.00 | 0.00 | 40 | 1018.5 |
| 20260906025516 | 20 | 289 | 4.8 | 11.3 | 0.00 | 0.00 | 0.00 | 40 | 1018.5 |
| 20260906025017 | 20 | 288 | 6.4 | 11.3 | 0.00 | 0.00 | 0.00 | 40 | 1018.5 |
| 20260906024547 | 20 | 319 | 3.2 | 8.0 | 0.00 | 0.00 | 0.00 | 40 | 1018.5 |
| 20260906024018 | 20 | 299 | 4.8 | 8.0 | 0.00 | 0.00 | 0.00 | 41 | 1018.4 |
| 20260906023520 | 20 | 302 | 3.2 | 8.0 | 0.00 | 0.00 | 0.00 | 40 | 1018.3 |
| 20260906023035 | 20 | 322 | 3.2 | 6.4 | 0.00 | 0.00 | 0.00 | 40 | 1018.3 |
| 20260906022517 | 20 | 283 | 3.2 | 6.4 | 0.00 | 0.00 | 0.00 | 41 | 1018.2 |
| 20260906022020 | 20 | 77 | 1.6 | 8.0 | 0.00 | 0.00 | 0.00 | 41 | 1018.2 |
| 20260906021538 | 20 | 298 | 3.2 | 8.0 | 0.00 | 0.00 | 0.00 | 40 | 1018.2 |
| 20260906021020 | 20 | 340 | 1.6 | 6.4 | 0.00 | 0.00 | 0.00 | 40 | 1018.2 |
| 20260906020520 | 20 | 288 | 1.6 | 4.8 | 0.00 | 0.00 | 0.00 | 40 | 1018.2 |
| 20260906020034 | 20 | 273 | 1.6 | 6.4 | 0.00 | 0.00 | 0.00 | 40 | 1018.2 |
| 20260906015515 | 21 | 347 | 1.6 | 8.0 | 0.00 | 0.00 | 0.00 | 40 | 1018.2 |
| 20260906015019 | 21 | 344 | 3.2 | 8.0 | 0.00 | 0.00 | 0.00 | 38 | 1018.2 |
| 20260906014549 | 21 | 241 | 1.6 | 6.4 | 0.00 | 0.00 | 0.00 | 39 | 1018.1 |
| 20260906014017 | 21 | 355 | 3.2 | 14.5 | 0.00 | 0.00 | 0.00 | 39 | 1018.2 |
| 20260906013517 | 22 | 257 | 4.8 | 14.5 | 0.00 | 0.00 | 0.00 | 38 | 1018.1 |
| 20260906013044 | 22 | 297 | 3.2 | 16.1 | 0.00 | 0.00 | 0.00 | 37 | 1018.0 |
| 20260906012519 | 22 | 119 | 4.8 | 16.1 | 0.00 | 0.00 | 0.00 | 36 | 1018.0 |
| 20260906012020 | 23 | 281 | 6.4 | 16.1 | 0.00 | 0.00 | 0.00 | 36 | 1017.9 |
| 20260906011540 | 23 | 269 | 8.0 | 17.7 | 0.00 | 0.00 | 0.00 | 36 | 1017.9 |
| 20260906011018 | 23 | 341 | 8.0 | 20.9 | 0.00 | 0.00 | 0.00 | 36 | 1017.8 |
| 20260906010518 | 24 | 319 | 12.9 | 20.9 | 0.00 | 0.00 | 0.00 | 35 | 1017.9 |
| 20260906010036 | 24 | 275 | 9.7 | 29.0 | 0.00 | 0.00 | 0.00 | 33 | 1017.9 |
| 20260906005517 | 25 | 322 | 9.7 | 29.0 | 0.00 | 0.00 | 0.00 | 33 | 1017.9 |
| 20260906005023 | 25 | 340 | 19.3 | 29.0 | 0.00 | 0.00 | 0.00 | 32 | 1017.7 |
| 20260906004534 | 25 | 349 | 19.3 | 29.0 | 0.00 | 0.00 | 0.00 | 32 | 1017.7 |
| 20260906004023 | 25 | 356 | 16.1 | 27.4 | 0.00 | 0.00 | 0.00 | 32 | 1017.7 |
| 20260906003516 | 26 | 274 | 11.3 | 25.7 | 0.00 | 0.00 | 0.00 | 31 | 1017.7 |
| 20260906003034 | 26 | 352 | 11.3 | 25.7 | 0.00 | 0.00 | 0.00 | 31 | 1017.7 |
| 20260906002519 | 26 | 345 | 12.9 | 27.4 | 0.00 | 0.00 | 0.00 | 31 | 1017.6 |
| 20260906002020 | 26 | 327 | 19.3 | 29.0 | 0.00 | 0.00 | 0.00 | 30 | 1017.5 |
| 20260906001534 | 26 | 356 | 20.9 | 29.0 | 0.00 | 0.00 | 0.00 | 29 | 1017.7 |
| 20260906001017 | 26 | 353 | 17.7 | 27.4 | 0.00 | 0.00 | 0.00 | 29 | 1017.7 |
| 20260906000517 | 26 | 340 | 12.9 | 24.1 | 0.00 | 0.00 | 0.00 | 29 | 1017.7 |
| 20260906000041 | 26 | 349 | 17.7 | 24.1 | 0.00 | 0.00 | 0.00 | 29 | 1017.6 |
| 20260905235520 | 26 | 330 | 12.9 | 24.1 | 0.00 | 0.00 | 0.00 | 29 | 1017.7 |
| 20260905235017 | 26 | 355 | 14.5 | 24.1 | 0.00 | 0.00 | 0.00 | 29 | 1017.7 |
| 20260905234538 | 26 | 357 | 11.3 | 24.1 | 0.00 | 0.00 | 0.00 | 29 | 1017.6 |
| 20260905234018 | 26 | 349 | 12.9 | 24.1 | 0.00 | 0.00 | 0.00 | 28 | 1017.6 |
| 20260905233520 | 26 | 4 | 14.5 | 27.4 | 0.00 | 0.00 | 0.00 | 28 | 1017.7 |
| 20260905233035 | 26 | 347 | 9.7 | 27.4 | 0.00 | 0.00 | 0.00 | 29 | 1017.6 |
| 20260905232518 | 27 | 348 | 12.9 | 27.4 | 0.00 | 0.00 | 0.00 | 29 | 1017.6 |
| 20260905232020 | 26 | 306 | 11.3 | 22.5 | 0.00 | 0.00 | 0.00 | 28 | 1017.6 |
| 20260905231535 | 26 | 326 | 12.9 | 22.5 | 0.00 | 0.00 | 0.00 | 29 | 1017.7 |
| 20260905231019 | 26 | 335 | 14.5 | 22.5 | 0.00 | 0.00 | 0.00 | 28 | 1017.6 |
| 20260905230517 | 27 | 6 | 9.7 | 22.5 | 0.00 | 0.00 | 0.00 | 29 | 1017.8 |
| 20260905230037 | 27 | 342 | 8.0 | 22.5 | 0.00 | 0.00 | 0.00 | 29 | 1017.8 |
| 20260905225517 | 26 | 259 | 8.0 | 20.9 | 0.00 | 0.00 | 0.00 | 29 | 1017.8 |
| 20260905225017 | 26 | 307 | 6.4 | 20.9 | 0.00 | 0.00 | 0.00 | 30 | 1017.9 |
| 20260905224535 | 26 | 342 | 11.3 | 20.9 | 0.00 | 0.00 | 0.00 | 29 | 1017.8 |
| 20260905224018 | 25 | 342 | 14.5 | 20.9 | 0.00 | 0.00 | 0.00 | 31 | 1017.8 |
| 20260905223515 | 26 | 345 | 8.0 | 24.1 | 0.00 | 0.00 | 0.00 | 29 | 1017.8 |
| 20260905223037 | 26 | 1 | 16.1 | 24.1 | 0.00 | 0.00 | 0.00 | 29 | 1017.9 |
| 20260905222519 | 26 | 344 | 11.3 | 24.1 | 0.00 | 0.00 | 0.00 | 29 | 1017.9 |
| 20260905222018 | 26 | 347 | 9.7 | 24.1 | 0.00 | 0.00 | 0.00 | 29 | 1017.8 |